This demonstration page uses our WeatherBlox Daily Observations layout. Learn more.

Left ArrowRight Arrow

31.84235, -102.49876

Hourly Observations for May 5, 2017

Temp ( °F °C ) Dew Point ( °F °C ) Humidity (%) Winds ( mph kmh ) Pressure ( in mb ) Visibility ( mi km ) Precip ( " mm )
12:53 am 00:53 Clear 60 15.6 27 -2.8 28 28 SE 6 9 30.05 1018 10 16 0.00 0.00
1:53 am 01:53 Clear 59 15 28 -2.2 31 31 ESE 3 6 30.05 1018 10 16 0.00 0.00
2:53 am 02:53 Clear 56 13.3 29 -1.7 36 36 E 8 13 30.06 1018 10 16 0.00 0.00
3:53 am 03:53 Clear 56 13.3 28 -2.2 34 34 ESE 8 13 30.05 1018 10 16 0.00 0.00
4:53 am 04:53 Clear 54 12.2 28 -2.2 37 37 SE 5 7 30.06 1018 10 16 0.00 0.00
5:53 am 05:53 Clear 53 11.7 28 -2.2 38 38 SSE 5 7 30.07 1018 10 16 0.00 0.00
6:53 am 06:53 Clear 53 11.7 28 -2.2 38 38 SSE 5 7 30.07 1018 10 16 0.00 0.00
7:53 am 07:53 Sunny 57 13.9 30 -1.1 36 36 SE 5 7 30.08 1019 10 16 0.00 0.00
8:53 am 08:53 Sunny 63 17.2 30 -1.1 29 29 SSE 10 17 30.08 1019 10 16 0.00 0.00
9:53 am 09:53 Sunny 67 19.4 29 -1.7 24 24 S 10 17 30.08 1019 10 16 0.00 0.00
10:53 am 10:53 Sunny 71 21.7 28 -2.2 20 20 S 9 15 30.06 1018 10 16 0.00 0.00
11:53 am 11:53 Sunny 74 23.3 27 -2.8 17 17 S 9 15 30.06 1018 10 16 0.00 0.00
12:53 pm 12:53 Sunny 76 24.4 26 -3.3 16 16 S 8 13 30.04 1017 10 16 0.00 0.00
1:53 pm 13:53 Sunny 78 25.6 26 -3.3 15 15 VRB 6 9 30.00 1016 10 16 0.00 0.00
2:53 pm 14:53 Sunny 81 27.2 26 -3.3 13 13 undefined N/A 29.97 1015 10 16 0.00 0.00
3:53 pm 15:53 Sunny 83 28.3 26 -3.3 12 12 VRB 7 11 29.94 1014 10 16 0.00 0.00
4:53 pm 16:53 Sunny 84 28.9 27 -2.8 12 12 SSE 9 15 29.91 1013 10 16 0.00 0.00
5:53 pm 17:53 Sunny 84 28.9 26 -3.3 12 12 SSW 5 7 29.88 1012 10 16 0.00 0.00
6:53 pm 18:53 Sunny 84 28.9 27 -2.8 12 12 S 12 19 29.87 1012 10 16 0.00 0.00
7:53 pm 19:53 Sunny 82 27.8 27 -2.8 13 13 SSE 9 15 29.86 1011 10 16 0.00 0.00
8:53 pm 20:53 Clear 76 24.4 29 -1.7 18 18 SE 8 13 29.87 1011 10 16 0.00 0.00
9:53 pm 21:53 Clear 73 22.8 30 -1.1 20 20 SE 8 13 29.88 1012 10 16 0.00 0.00
10:53 pm 22:53 Clear 72 22.2 30 -1.1 21 21 SE 10 17 29.87 1011 10 16 0.00 0.00
11:53 pm 23:53 Clear 71 21.7 31 -0.6 23 23 SSE 10 17 29.86 1011 10 16 0.00 0.00

Powered by AerisWeather